SCP
1 1 1 1 2 1 1 2 2 4 3 3 2 1 1 1 1 1 0 0 1 1 2 2 1 1 0 0 0 0 0 0 0 0 0 0 0 0 0 0 0 0 0
1 1 1 1 1 1 1 1 2 2 3 3 3 3 2 2 1 1 1 1 0 0 0 0 1 1 0 0 0 0 0 0 0 0 0 0 0 0 0 0 0 0 0
1 1 1 1 1 1 1 1 1 1 1 2 2 3 3 2 1 1 0 0 0 0 0 0 0 0 0 0 0 0 0 0 0 0 0 0 0 0 0 0 0 -0 -0
1 1 1 1 1 1 1 1 1 1 1 1 1 1 1 1 1 1 0 0 0 0 0 0 0 0 0 0 0 0 0 0 0 0 0 0 0 0 0 0 0 -0 -0
1 1 1 1 0 0 0 0 0 0 0 0 1 1 1 0 0 0 0 0 0 0 0 0 0 0 0 0 0 0 0 0 0 0 0 0 0 0 0 0 0 -0 0
1 1 0 0 0 0 0 0 0 0 0 0 0 0 0 0 0 0 0 0 0 0 0 0 0 0 0 0 0 0 0 0 0 0 0 0 0 0 0 0 0 0 0
2 0 0 0 0 0 0 0 0 0 0 0 0 0 0 0 0 0 0 0 0 0 0 0 0 0 0 0 0 0 0 0 0 0 0 0 0 0 0 0 0 0 0
1 1 0 0 0 0 0 0 0 0 0 0 0 0 0 0 0 0 0 0 0 0 0 0 0 0 0 0 0 0 0 0 0 0 0 0 0 0 0 -0 0 0 0
1 0 0 0 0 0 0 0 0 0 0 0 0 0 0 0 0 0 0 0 0 0 0 0 0 0 0 0 0 0 0 0 0 0 0 0 0 0 0 0 0 0 0
1 0 0 0 0 0 0 0 0 0 0 0 0 0 0 0 0 0 0 0 0 0 0 0 0 0 0 0 0 0 0 0 0 0 0 0 0 0 0 0 0 0 0
1 0 0 0 0 0 0 0 0 0 0 0 0 0 0 0 0 0 0 0 0 0 0 0 0 0 0 0 0 0 0 0 0 0 0 0 0 0 0 0 0 0 0
0 0 0 0 0 0 0 0 0 0 0 0 0 0 0 0 0 0 0 0 0 0 0 0 0 0 0 0 0 0 0 0 0 0 0 0 0 0 0 0 0 0 0
0 0 0 0 0 0 0 0 0 0 0 0 0 0 0 0 0 0 0 0 0 0 0 0 0 0 0 0 0 0 0 0 0 0 0 0 0 0 0 0 0 0 0
1 1 0 0 0 0 0 0 0 0 0 0 0 0 0 0 0 0 0 0 0 0 0 0 0 0 0 0 0 0 0 0 0 0 0 0 0 0 0 0 0 0 0
0 1 1 0 0 0 0 0 0 0 0 0 0 0 0 0 0 0 0 0 0 0 0 0 0 0 0 0 0 0 0 0 0 0 0 0 0 0 0 0 0 0 0
0 1 1 0 0 0 0 0 0 0 0 0 0 0 0 0 0 0 0 0 0 0 0 0 0 0 0 0 0 0 0 0 0 0 0 0 0 0 0 0 0 0 0
1 1 0 0 0 0 0 0 0 0 0 0 0 0 0 0 0 0 0 0 0 0 0 0 0 0 0 0 0 0 0 0 0 0 0 0 0 0 0 0 0 0 0
0 0 0 1 0 0 0 0 0 0 0 0 0 0 0 0 0 0 0 0 0 0 0 0 0 0 0 0 0 0 0 0 0 0 0 0 0 0 0 0 0 0 0
0 0 0 0 0 0 0 0 0 0 0 0 0 0 0 0 0 0 0 0 0 0 0 0 0 0 0 0 0 0 0 0 0 0 0 0 0 0 0 0 0 0 0
0 0 0 0 0 0 0 0 0 0 0 0 0 0 0 0 0 0 0 0 0 0 0 0 0 0 0 0 0 0 0 0 0 0 0 0 0 0 0 0 0 0 0
0 0 0 0 0 0 0 0 0 0 0 0 0 0 0 0 0 0 0 0 0 0 0 0 0 0 0 0 0 0 0 0 0 0 0 0 0 0 0 0 0 0 0
0 0 0 0 0 0 0 0 0 0 0 0 0 0 0 0 0 0 0 0 0 0 0 0 0 0 0 0 0 0 0 0 0 0 0 0 0 0 0 0 0 0 0
0 0 0 0 0 0 0 0 0 0 0 0 0 0 0 0 0 0 0 0 0 0 0 0 0 0 0 0 0 0 0 0 0 0 0 0 0 0 0 0 0 0 0
0 0 0 0 0 0 0 0 0 0 0 0 0 0 0 0 0 0 0 0 0 0 0 0 0 0 0 0 0 0 0 0 0 0 0 0 0 0 0 0 0 0 0
0 0 0 0 0 -0 0 0 0 0 0 0 0 0 0 0 0 0 0 0 0 0 0 0 0 0 0 0 0 0 0 0 0 0 0 0 0 0 0 0 0 0 0
0 0 0 0 0 0 0 0 0 0 0 0 0 0 0 0 0 0 0 0 0 0 0 0 0 0 0 0 0 0 0 0 0 0 0 0 0 0 0 0 0 0 0
Wind_Speed_500mb
21 18 21 28 32 32 30 26 37 20 19 24 23 22 26 27 32 32 34 30 28 29 30 25 32 33 37 41 43 50 51 49 50 53 62 65 57 44 42 36 39 65 65
28 17 22 26 27 31 30 26 29 37 32 30 26 17 21 31 30 35 37 29 36 34 32 29 39 41 40 36 39 42 48 48 44 45 47 52 36 45 43 58 67 70 62
37 24 18 22 27 30 33 31 28 33 34 37 37 25 22 20 21 20 24 24 22 21 26 32 38 37 39 36 31 33 37 43 42 32 26 20 18 47 61 70 73 49 63
36 36 25 21 22 19 20 26 32 35 25 23 27 31 27 23 14 8 8 11 18 24 19 18 23 26 28 32 35 34 34 36 42 41 35 33 41 41 36 48 37 36 16
46 45 37 40 33 24 29 27 23 18 22 14 16 13 15 8 6 1 8 11 6 8 13 15 17 18 20 22 25 28 28 32 41 42 38 34 37 38 43 55 46 38 17
61 60 56 50 38 38 35 31 28 28 23 16 14 12 14 16 22 24 25 16 15 22 22 22 23 23 24 26 28 26 24 22 26 27 24 23 29 34 37 37 40 37 45
72 74 68 54 45 42 42 36 30 28 22 19 23 25 26 25 30 27 25 16 12 20 25 25 26 27 27 27 29 28 23 23 24 25 27 25 19 23 28 28 28 34 38
75 73 60 62 46 38 39 35 30 28 25 23 23 24 21 24 18 15 12 6 12 19 21 27 30 31 32 29 27 26 24 20 20 23 28 24 18 17 19 22 29 35 39
78 69 68 60 47 49 33 26 24 21 21 23 28 30 18 14 17 14 8 9 9 10 15 22 28 30 31 32 36 31 26 24 24 21 23 26 27 23 16 13 14 18 18
72 68 69 58 56 46 36 33 20 19 20 24 30 28 19 13 18 13 12 7 5 11 19 27 34 37 35 30 34 39 30 20 25 29 24 23 31 29 23 17 12 13 13
75 75 71 64 54 49 42 32 27 29 23 28 22 22 18 14 12 9 4 2 9 18 27 35 40 40 33 31 33 34 31 28 32 32 33 34 30 30 29 26 19 17 15
65 71 68 62 53 43 39 31 39 29 34 37 25 21 12 9 10 10 9 11 17 24 33 40 45 38 32 32 32 35 36 34 37 40 35 32 29 33 31 23 27 26 18
73 73 68 56 48 45 50 44 39 34 39 36 28 26 20 18 19 18 18 19 23 29 38 45 42 39 37 34 31 34 38 39 38 42 45 42 40 40 35 38 37 26 24
61 76 77 72 65 56 63 58 47 43 48 36 39 24 24 25 23 23 29 27 30 36 44 45 40 41 38 35 32 34 37 43 52 56 55 49 44 42 42 46 43 34 30
77 64 75 74 70 67 56 58 51 48 44 35 39 34 30 24 23 28 29 33 38 42 49 48 46 44 42 33 32 40 47 53 61 59 52 43 38 37 41 43 40 43 46
82 84 87 94 74 75 69 63 56 52 46 47 39 32 24 18 20 27 32 37 41 48 53 52 48 53 44 40 41 44 47 53 60 53 39 30 31 28 23 30 36 36 37
75 82 84 85 84 83 68 72 60 61 59 43 33 23 13 11 15 24 29 37 42 50 56 57 54 52 42 36 38 42 46 48 53 35 30 31 32 31 30 29 32 33 31
67 87 79 77 64 71 71 70 65 57 47 27 20 16 17 20 24 31 37 38 41 48 55 59 57 49 40 41 41 48 49 46 32 27 28 26 35 35 33 31 28 34 39
44 72 69 76 74 81 73 70 58 45 23 27 27 24 28 31 37 42 44 44 45 51 54 55 56 47 47 48 44 39 35 35 35 29 26 25 28 29 33 35 35 35 40
75 77 77 82 70 59 48 40 40 39 33 24 22 26 31 35 40 45 48 50 49 51 53 57 49 35 39 38 31 32 37 33 35 32 26 32 29 33 32 33 38 41 46
90 84 78 77 62 52 49 47 41 31 19 16 15 23 31 36 36 37 42 46 47 46 43 34 36 34 34 33 31 31 32 32 37 40 45 30 29 36 40 41 46 50 54
81 76 76 69 56 34 42 33 25 15 5 11 18 22 26 32 36 32 35 34 38 38 36 36 34 33 35 33 36 37 38 39 45 46 41 34 39 46 49 51 50 50 45
58 58 55 46 39 27 21 15 11 10 12 15 20 25 23 24 20 26 31 43 36 35 37 37 39 40 37 37 36 40 42 41 42 40 40 42 41 39 39 40 45 46 46
51 50 47 41 35 28 24 28 29 29 28 29 28 25 25 34 42 41 35 42 42 43 43 46 49 52 49 47 44 48 51 55 53 52 53 54 56 61 68 54 37 31 36
54 49 47 36 30 32 35 27 22 19 24 26 30 37 40 40 42 43 44 47 45 45 50 51 53 57 60 59 58 54 58 59 60 57 62 65 67 64 59 53 42 29 32
41 38 38 36 36 26 25 24 28 31 34 40 40 40 40 42 45 48 52 51 51 54 53 48 46 47 50 49 54 62 64 59 57 60 64 68 63 55 54 55 49 39 36
Wind_Direction_500mb
173 179 170 177 190 197 196 187 207 202 178 207 230 233 239 243 238 246 254 249 230 220 225 236 238 247 258 262 267 267 273 277 282 282 286 291 296 297 295 302 290 311 272
189 212 207 200 194 194 193 195 210 210 221 210 198 213 237 239 235 239 235 221 203 209 221 231 236 245 251 261 267 276 282 287 294 309 307 302 300 297 287 293 295 303 276
176 168 163 181 198 208 212 199 207 214 222 230 226 211 224 190 186 188 210 198 205 212 245 264 246 254 260 267 287 299 310 308 301 304 312 308 303 304 301 303 302 285 260
161 157 170 149 149 154 168 186 200 216 214 225 225 215 216 215 209 231 267 280 289 291 290 287 276 282 286 291 294 302 306 307 310 315 319 311 305 308 310 299 333 326 182
158 155 163 148 158 155 140 146 154 168 172 185 201 205 208 178 135 211 355 360 328 319 330 315 304 304 304 309 310 303 296 299 300 309 316 312 308 309 292 299 305 322 266
155 161 164 168 166 156 143 136 133 122 125 135 134 131 137 126 114 100 91 72 38 27 30 28 22 15 3 351 345 342 336 322 309 310 317 321 319 312 304 291 297 299 281
161 167 168 167 165 158 151 147 145 135 128 123 115 112 119 126 127 118 113 92 37 29 37 35 22 11 4 354 346 341 344 337 331 324 320 324 322 322 326 332 332 331 292
166 168 168 167 169 163 158 152 151 146 145 149 136 125 135 138 134 136 125 69 48 40 26 14 7 359 349 341 334 326 325 321 308 310 313 310 321 339 348 350 355 337 346
165 167 171 173 165 161 162 158 147 140 140 143 140 147 150 136 146 140 111 103 103 35 15 4 353 347 340 328 323 321 315 310 302 308 293 311 305 310 323 355 359 349 343
165 170 174 173 170 167 163 153 158 153 140 137 154 166 172 155 147 153 137 112 37 4 352 345 340 335 329 315 307 313 321 302 297 296 296 291 296 305 309 328 327 350 354
172 174 171 175 169 161 163 164 174 162 151 146 145 148 150 152 159 168 167 283 323 332 338 335 331 329 321 312 310 310 303 292 294 288 287 284 286 283 304 314 329 320 342
176 168 167 168 166 170 179 175 176 176 167 166 170 167 177 200 207 227 254 293 316 325 328 328 327 325 319 312 312 314 306 295 289 296 294 283 291 282 280 295 311 317 342
161 160 162 162 183 181 190 175 191 185 182 193 180 187 195 224 250 258 276 292 303 314 321 325 324 323 321 316 315 298 301 302 297 296 299 295 287 278 285 287 279 304 308
171 168 175 185 190 187 194 181 179 193 192 198 193 215 230 228 252 277 285 290 300 309 315 320 320 317 314 318 313 304 295 295 298 302 303 298 287 275 275 274 277 281 287
190 191 179 187 190 190 190 194 183 183 189 203 201 198 208 228 250 279 285 296 302 308 313 315 315 312 309 308 298 293 299 303 302 304 306 302 294 280 269 276 282 277 279
201 200 193 193 206 190 195 194 179 182 186 182 171 177 201 224 264 284 290 296 298 304 306 310 312 311 305 296 288 290 300 306 304 312 309 307 307 301 277 266 266 277 290
191 199 198 195 190 193 195 181 179 185 180 167 162 174 211 258 271 273 279 288 296 297 300 305 309 311 305 296 295 292 295 309 310 314 312 313 318 320 306 283 263 257 268
192 189 191 190 187 185 182 167 163 164 164 164 173 184 215 230 246 263 277 283 286 289 293 298 304 304 290 288 290 299 298 303 320 310 313 307 313 310 300 298 290 271 254
144 148 159 160 169 165 161 161 157 159 163 177 193 204 227 242 259 276 283 285 284 285 288 292 300 298 291 290 292 296 305 308 316 318 300 296 300 299 295 286 285 284 277
121 126 138 138 139 139 148 150 131 142 152 176 199 222 246 265 283 288 287 288 288 286 288 291 299 303 307 309 312 303 303 301 307 306 306 291 291 290 287 283 282 282 284
104 108 108 103 103 121 131 135 144 139 157 203 240 267 283 291 298 300 300 303 301 298 303 308 306 304 306 313 309 306 302 299 302 302 305 297 289 284 281 282 282 278 283
100 102 104 103 110 123 138 127 135 143 201 289 296 302 307 310 313 316 322 322 321 315 313 312 307 304 302 297 300 298 304 302 301 300 300 298 282 273 277 285 289 292 287
86 94 97 102 110 110 103 134 78 17 345 334 330 330 347 332 312 307 311 312 318 316 314 312 309 308 304 303 298 298 299 295 294 299 298 292 289 290 290 292 289 281 285
79 77 79 75 72 75 63 41 39 40 29 9 358 337 318 304 302 306 315 315 311 310 308 306 305 302 299 296 293 291 292 288 287 288 288 288 286 286 295 297 291 279 284
92 91 93 95 81 60 57 63 50 15 354 344 335 332 337 335 328 323 318 318 314 311 309 303 299 299 296 296 297 295 294 292 289 288 284 284 284 288 290 293 295 266 273
82 75 75 70 71 77 60 34 9 2 4 357 348 341 336 330 325 319 314 311 308 305 303 302 299 300 294 292 291 294 294 288 287 283 282 284 285 282 285 287 283 280 253
Wind_Speed_850mb
21 18 21 28 32 32 30 26 37 20 19 24 23 22 26 27 32 32 34 30 28 29 30 25 32 33 37 41 43 50 51 49 50 53 62 65 57 44 42 36 39 65 65
28 17 22 26 27 31 30 26 29 37 32 30 26 17 21 31 30 35 37 29 36 34 32 29 39 41 40 36 39 42 48 48 44 45 47 52 36 45 43 58 67 70 62
37 24 18 22 27 30 33 31 28 33 34 37 37 25 22 20 21 20 24 24 22 21 26 32 38 37 39 36 31 33 37 43 42 32 26 20 18 47 61 70 73 49 63
36 36 25 21 22 19 20 26 32 35 25 23 27 31 27 23 14 8 8 11 18 24 19 18 23 26 28 32 35 34 34 36 42 41 35 33 41 41 36 48 37 36 16
46 45 37 40 33 24 29 27 23 18 22 14 16 13 15 8 6 1 8 11 6 8 13 15 17 18 20 22 25 28 28 32 41 42 38 34 37 38 43 55 46 38 17
61 60 56 50 38 38 35 31 28 28 23 16 14 12 14 16 22 24 25 16 15 22 22 22 23 23 24 26 28 26 24 22 26 27 24 23 29 34 37 37 40 37 45
72 74 68 54 45 42 42 36 30 28 22 19 23 25 26 25 30 27 25 16 12 20 25 25 26 27 27 27 29 28 23 23 24 25 27 25 19 23 28 28 28 34 38
75 73 60 62 46 38 39 35 30 28 25 23 23 24 21 24 18 15 12 6 12 19 21 27 30 31 32 29 27 26 24 20 20 23 28 24 18 17 19 22 29 35 39
78 69 68 60 47 49 33 26 24 21 21 23 28 30 18 14 17 14 8 9 9 10 15 22 28 30 31 32 36 31 26 24 24 21 23 26 27 23 16 13 14 18 18
72 68 69 58 56 46 36 33 20 19 20 24 30 28 19 13 18 13 12 7 5 11 19 27 34 37 35 30 34 39 30 20 25 29 24 23 31 29 23 17 12 13 13
75 75 71 64 54 49 42 32 27 29 23 28 22 22 18 14 12 9 4 2 9 18 27 35 40 40 33 31 33 34 31 28 32 32 33 34 30 30 29 26 19 17 15
65 71 68 62 53 43 39 31 39 29 34 37 25 21 12 9 10 10 9 11 17 24 33 40 45 38 32 32 32 35 36 34 37 40 35 32 29 33 31 23 27 26 18
73 73 68 56 48 45 50 44 39 34 39 36 28 26 20 18 19 18 18 19 23 29 38 45 42 39 37 34 31 34 38 39 38 42 45 42 40 40 35 38 37 26 24
61 76 77 72 65 56 63 58 47 43 48 36 39 24 24 25 23 23 29 27 30 36 44 45 40 41 38 35 32 34 37 43 52 56 55 49 44 42 42 46 43 34 30
77 64 75 74 70 67 56 58 51 48 44 35 39 34 30 24 23 28 29 33 38 42 49 48 46 44 42 33 32 40 47 53 61 59 52 43 38 37 41 43 40 43 46
82 84 87 94 74 75 69 63 56 52 46 47 39 32 24 18 20 27 32 37 41 48 53 52 48 53 44 40 41 44 47 53 60 53 39 30 31 28 23 30 36 36 37
75 82 84 85 84 83 68 72 60 61 59 43 33 23 13 11 15 24 29 37 42 50 56 57 54 52 42 36 38 42 46 48 53 35 30 31 32 31 30 29 32 33 31
67 87 79 77 64 71 71 70 65 57 47 27 20 16 17 20 24 31 37 38 41 48 55 59 57 49 40 41 41 48 49 46 32 27 28 26 35 35 33 31 28 34 39
44 72 69 76 74 81 73 70 58 45 23 27 27 24 28 31 37 42 44 44 45 51 54 55 56 47 47 48 44 39 35 35 35 29 26 25 28 29 33 35 35 35 40
75 77 77 82 70 59 48 40 40 39 33 24 22 26 31 35 40 45 48 50 49 51 53 57 49 35 39 38 31 32 37 33 35 32 26 32 29 33 32 33 38 41 46
90 84 78 77 62 52 49 47 41 31 19 16 15 23 31 36 36 37 42 46 47 46 43 34 36 34 34 33 31 31 32 32 37 40 45 30 29 36 40 41 46 50 54
81 76 76 69 56 34 42 33 25 15 5 11 18 22 26 32 36 32 35 34 38 38 36 36 34 33 35 33 36 37 38 39 45 46 41 34 39 46 49 51 50 50 45
58 58 55 46 39 27 21 15 11 10 12 15 20 25 23 24 20 26 31 43 36 35 37 37 39 40 37 37 36 40 42 41 42 40 40 42 41 39 39 40 45 46 46
51 50 47 41 35 28 24 28 29 29 28 29 28 25 25 34 42 41 35 42 42 43 43 46 49 52 49 47 44 48 51 55 53 52 53 54 56 61 68 54 37 31 36
54 49 47 36 30 32 35 27 22 19 24 26 30 37 40 40 42 43 44 47 45 45 50 51 53 57 60 59 58 54 58 59 60 57 62 65 67 64 59 53 42 29 32
41 38 38 36 36 26 25 24 28 31 34 40 40 40 40 42 45 48 52 51 51 54 53 48 46 47 50 49 54 62 64 59 57 60 64 68 63 55 54 55 49 39 36
Wind_Direction_850mb
173 179 170 177 190 197 196 187 207 202 178 207 230 233 239 243 238 246 254 249 230 220 225 236 238 247 258 262 267 267 273 277 282 282 286 291 296 297 295 302 290 311 272
189 212 207 200 194 194 193 195 210 210 221 210 198 213 237 239 235 239 235 221 203 209 221 231 236 245 251 261 267 276 282 287 294 309 307 302 300 297 287 293 295 303 276
176 168 163 181 198 208 212 199 207 214 222 230 226 211 224 190 186 188 210 198 205 212 245 264 246 254 260 267 287 299 310 308 301 304 312 308 303 304 301 303 302 285 260
161 157 170 149 149 154 168 186 200 216 214 225 225 215 216 215 209 231 267 280 289 291 290 287 276 282 286 291 294 302 306 307 310 315 319 311 305 308 310 299 333 326 182
158 155 163 148 158 155 140 146 154 168 172 185 201 205 208 178 135 211 355 360 328 319 330 315 304 304 304 309 310 303 296 299 300 309 316 312 308 309 292 299 305 322 266
155 161 164 168 166 156 143 136 133 122 125 135 134 131 137 126 114 100 91 72 38 27 30 28 22 15 3 351 345 342 336 322 309 310 317 321 319 312 304 291 297 299 281
161 167 168 167 165 158 151 147 145 135 128 123 115 112 119 126 127 118 113 92 37 29 37 35 22 11 4 354 346 341 344 337 331 324 320 324 322 322 326 332 332 331 292
166 168 168 167 169 163 158 152 151 146 145 149 136 125 135 138 134 136 125 69 48 40 26 14 7 359 349 341 334 326 325 321 308 310 313 310 321 339 348 350 355 337 346
165 167 171 173 165 161 162 158 147 140 140 143 140 147 150 136 146 140 111 103 103 35 15 4 353 347 340 328 323 321 315 310 302 308 293 311 305 310 323 355 359 349 343
165 170 174 173 170 167 163 153 158 153 140 137 154 166 172 155 147 153 137 112 37 4 352 345 340 335 329 315 307 313 321 302 297 296 296 291 296 305 309 328 327 350 354
172 174 171 175 169 161 163 164 174 162 151 146 145 148 150 152 159 168 167 283 323 332 338 335 331 329 321 312 310 310 303 292 294 288 287 284 286 283 304 314 329 320 342
176 168 167 168 166 170 179 175 176 176 167 166 170 167 177 200 207 227 254 293 316 325 328 328 327 325 319 312 312 314 306 295 289 296 294 283 291 282 280 295 311 317 342
161 160 162 162 183 181 190 175 191 185 182 193 180 187 195 224 250 258 276 292 303 314 321 325 324 323 321 316 315 298 301 302 297 296 299 295 287 278 285 287 279 304 308
171 168 175 185 190 187 194 181 179 193 192 198 193 215 230 228 252 277 285 290 300 309 315 320 320 317 314 318 313 304 295 295 298 302 303 298 287 275 275 274 277 281 287
190 191 179 187 190 190 190 194 183 183 189 203 201 198 208 228 250 279 285 296 302 308 313 315 315 312 309 308 298 293 299 303 302 304 306 302 294 280 269 276 282 277 279
201 200 193 193 206 190 195 194 179 182 186 182 171 177 201 224 264 284 290 296 298 304 306 310 312 311 305 296 288 290 300 306 304 312 309 307 307 301 277 266 266 277 290
191 199 198 195 190 193 195 181 179 185 180 167 162 174 211 258 271 273 279 288 296 297 300 305 309 311 305 296 295 292 295 309 310 314 312 313 318 320 306 283 263 257 268
192 189 191 190 187 185 182 167 163 164 164 164 173 184 215 230 246 263 277 283 286 289 293 298 304 304 290 288 290 299 298 303 320 310 313 307 313 310 300 298 290 271 254
144 148 159 160 169 165 161 161 157 159 163 177 193 204 227 242 259 276 283 285 284 285 288 292 300 298 291 290 292 296 305 308 316 318 300 296 300 299 295 286 285 284 277
121 126 138 138 139 139 148 150 131 142 152 176 199 222 246 265 283 288 287 288 288 286 288 291 299 303 307 309 312 303 303 301 307 306 306 291 291 290 287 283 282 282 284
104 108 108 103 103 121 131 135 144 139 157 203 240 267 283 291 298 300 300 303 301 298 303 308 306 304 306 313 309 306 302 299 302 302 305 297 289 284 281 282 282 278 283
100 102 104 103 110 123 138 127 135 143 201 289 296 302 307 310 313 316 322 322 321 315 313 312 307 304 302 297 300 298 304 302 301 300 300 298 282 273 277 285 289 292 287
86 94 97 102 110 110 103 134 78 17 345 334 330 330 347 332 312 307 311 312 318 316 314 312 309 308 304 303 298 298 299 295 294 299 298 292 289 290 290 292 289 281 285
79 77 79 75 72 75 63 41 39 40 29 9 358 337 318 304 302 306 315 315 311 310 308 306 305 302 299 296 293 291 292 288 287 288 288 288 286 286 295 297 291 279 284
92 91 93 95 81 60 57 63 50 15 354 344 335 332 337 335 328 323 318 318 314 311 309 303 299 299 296 296 297 295 294 292 289 288 284 284 284 288 290 293 295 266 273
82 75 75 70 71 77 60 34 9 2 4 357 348 341 336 330 325 319 314 311 308 305 303 302 299 300 294 292 291 294 294 288 287 283 282 284 285 282 285 287 283 280 253